Lid_Strength_Index
15 17 19 18 18 17 18 19 19 18 17 18 20 19 16 15 17 17 17 17 16 15 12 12 13 15 16 17 17 17 17 18 18 18 19 19 19 18 17 15 15 15 15 15
16 19 17 16 16 18 18 18 19 18 18 19 19 18 17 17 18 18 17 16 16 14 13 14 15 17 17 17 17 17 17 18 17 18 18 19 19 18 18 17 16 16 16 15
17 18 16 17 18 18 19 19 20 20 19 19 20 18 17 17 17 17 17 17 16 15 14 15 16 17 17 17 18 17 18 18 18 18 19 19 19 19 19 18 18 17 16 16
17 16 17 17 19 19 20 18 19 19 20 22 20 21 18 18 18 18 18 18 18 17 14 15 16 17 17 18 18 18 18 18 19 19 20 21 21 21 20 20 19 18 18 18
18 18 18 18 18 18 19 18 19 19 21 21 21 23 18 19 17 17 19 19 19 18 17 17 18 18 18 19 19 19 19 20 20 20 21 21 21 21 20 20 20 19 19 18
18 17 19 19 18 18 18 18 19 20 22 24 26 23 18 18 18 19 19 19 19 19 19 19 19 19 19 20 20 20 21 21 21 21 21 21 21 21 21 21 21 20 20 19
18 18 18 18 20 18 19 20 23 21 23 21 30 25 17 17 18 18 18 19 19 19 20 20 20 20 21 21 21 21 21 21 21 21 21 21 21 21 21 21 21 21 21 20
22 19 19 18 19 21 20 21 22 26 25 23 29 24 18 18 19 19 19 19 19 20 20 20 20 21 22 22 22 22 21 21 21 21 22 21 21 21 21 21 21 21 21 20
22 19 19 18 19 19 20 23 21 27 34 29 23 20 17 19 19 19 19 20 20 20 20 21 21 22 23 22 22 22 22 21 21 21 21 21 21 21 22 21 21 21 20 20
21 22 20 19 19 20 19 20 22 24 27 28 23 26 19 18 18 19 20 20 20 20 21 22 22 23 23 23 22 22 22 22 22 21 22 21 22 21 21 21 21 21 20 20
20 21 19 20 22 21 22 23 22 22 22 26 29 22 18 18 19 20 20 20 21 21 21 21 23 23 23 22 23 23 22 22 22 22 22 22 22 21 21 21 21 21 20 20
19 20 24 19 20 20 20 21 21 22 23 26 26 23 19 20 24 26 21 20 21 23 22 22 22 22 22 22 23 22 22 22 22 22 22 22 22 22 22 21 21 21 21 20
19 22 23 18 20 21 22 21 21 23 22 25 26 19 22 25 24 22 22 21 21 22 23 22 22 22 22 22 22 22 22 22 22 22 23 22 22 22 22 22 21 21 21 21
17 20 20 19 17 20 21 22 21 23 28 23 22 17 15 15 15 15 19 20 19 20 21 22 22 22 22 21 22 23 22 22 22 23 23 23 23 23 23 22 22 22 22 21
19 24 23 22 21 22 20 21 23 24 22 24 17 19 16 15 15 15 17 18 19 21 22 22 23 22 22 22 23 23 23 23 24 25 25 25 24 23 23 23 23 23 22 20
20 23 26 24 21 21 22 21 21 21 21 21 21 21 16 16 16 16 16 18 20 21 22 22 22 22 22 22 23 23 25 27 27 28 27 27 25 25 25 25 24 23 21 19
23 26 28 24 25 24 19 18 21 23 23 21 21 15 16 16 16 17 17 18 18 20 21 22 22 22 23 23 24 28 29 31 32 30 29 28 27 27 27 26 24 23 22 20
27 24 26 27 26 25 16 17 18 19 17 19 19 16 15 15 17 17 17 16 18 20 22 22 22 23 23 25 28 31 31 32 32 30 30 29 29 28 27 26 25 24 22 21
21 25 22 27 32 21 16 18 19 19 18 15 17 16 15 19 18 16 18 18 20 21 21 22 22 23 25 27 29 30 30 32 30 30 30 29 29 28 27 26 25 24 21 20
20 20 24 31 24 20 15 20 21 19 17 14 15 15 16 17 15 13 20 21 21 21 21 22 23 23 24 24 24 24 27 29 27 26 27 27 27 27 27 26 24 22 22 20
23 23 23 22 22 21 16 19 19 18 14 16 16 16 17 15 14 18 21 21 21 21 22 23 23 24 24 24 24 25 25 27 25 24 25 26 26 26 25 24 23 23 22 21
21 23 25 23 23 21 19 18 15 11 14 15 17 16 16 15 19 21 21 22 22 23 23 24 24 24 24 24 25 25 26 25 25 26 26 26 26 24 22 23 23 22 22 22
18 15 17 18 19 15 17 13 12 15 15 14 15 15 15 15 18 21 22 22 22 23 23 24 25 25 25 25 25 27 26 26 27 28 28 27 26 23 23 23 23 23 22 22
17 15 17 15 12 13 11 10 11 12 13 13 14 14 15 15 17 21 22 22 23 23 24 25 26 27 27 27 26 28 28 28 31 30 28 27 26 25 24 23 23 23 22 22
13 16 15 14 12 12 11 10 10 11 15 16 16 15 14 15 19 21 22 22 23 24 25 26 27 27 28 28 29 31 29 31 30 29 28 27 26 25 25 24 24 22 20 19
15 12 15 13 9 10 10 14 13 15 15 15 16 18 17 16 19 21 22 22 23 25 25 27 27 27 28 29 30 30 30 30 31 29 28 27 26 26 25 25 24 21 18 17